| time (UTC) | temp F | wind direction | speed MPH | gust MPH | rain 1hr in | rain 24hr in | rain mn in | humidity % | barometer mb |
| 20260504191422 | 76 | 261 | 0.0 | 1.0 | 0.00 | 0.00 | 0.00 | 26 | 1032.5 |
| 20260504185423 | 76 | 360 | 0.0 | 0.0 | 0.00 | 0.00 | 0.00 | 26 | 1032.8 |
| 20260504184423 | 76 | 307 | 1.0 | 3.0 | 0.00 | 0.00 | 0.00 | 27 | 1033.0 |
| 20260504183424 | 77 | 2 | 0.0 | 0.0 | 0.00 | 0.00 | 0.00 | 28 | 1033.2 |
| 20260504182423 | 76 | 45 | 0.0 | 0.0 | 0.00 | 0.00 | 0.00 | 29 | 1033.3 |
| 20260504181426 | 75 | 247 | 0.0 | 1.0 | 0.00 | 0.00 | 0.00 | 28 | 1033.3 |
| 20260504175423 | 75 | 24 | 0.0 | 1.0 | 0.00 | 0.00 | 0.00 | 29 | 1033.7 |
| 20260504174424 | 75 | 32 | 0.0 | 2.0 | 0.00 | 0.00 | 0.00 | 29 | 1033.9 |
| 20260504173424 | 75 | 235 | 0.0 | 4.0 | 0.00 | 0.00 | 0.00 | 28 | 1034.0 |
| 20260504172523 | 74 | 337 | 0.0 | 1.0 | 0.00 | 0.00 | 0.00 | 29 | 1034.1 |
| 20260504171523 | 74 | 157 | 0.0 | 1.0 | 0.00 | 0.00 | 0.00 | 28 | 1034.2 |
| 20260504170523 | 74 | 45 | 0.0 | 1.0 | 0.00 | 0.00 | 0.00 | 30 | 1034.3 |
| 20260504160424 | 73 | 135 | 0.0 | 0.0 | 0.00 | 0.00 | 0.00 | 31 | 1035.3 |
| 20260504150425 | 71 | 247 | 0.0 | 1.0 | 0.00 | 0.00 | 0.00 | 34 | 1036.0 |
| 20260504140424 | 67 | 312 | 0.0 | 1.0 | 0.00 | 0.00 | 0.00 | 44 | 1036.0 |
| 20260504130433 | 58 | 266 | 0.0 | 2.0 | 0.00 | 0.00 | 0.00 | 61 | 1036.6 |
| 20260504081922 | 43 | 135 | 0.0 | 0.0 | 0.00 | 0.00 | 0.00 | 68 | 1036.5 |
| 20260504080924 | 43 | 135 | 0.0 | 0.0 | 0.00 | 0.00 | 0.00 | 68 | 1036.5 |
| 20260504050023 | 46 | 135 | 0.0 | 0.0 | 0.00 | 0.00 | 0.00 | 58 | 1036.3 |
| 20260504045024 | 46 | 135 | 0.0 | 0.0 | 0.00 | 0.00 | 0.00 | 60 | 1036.3 |
| 20260504044025 | 46 | 135 | 0.0 | 0.0 | 0.00 | 0.00 | 0.00 | 60 | 1036.4 |
| 20260504043024 | 46 | 135 | 0.0 | 0.0 | 0.00 | 0.00 | 0.00 | 60 | 1036.2 |
| 20260504042023 | 46 | 135 | 0.0 | 0.0 | 0.00 | 0.00 | 0.00 | 59 | 1036.2 |
| 20260504041024 | 46 | 135 | 0.0 | 0.0 | 0.00 | 0.00 | 0.00 | 59 | 1036.0 |
| 20260504040036 | 46 | 135 | 0.0 | 0.0 | 0.00 | 0.00 | 0.00 | 59 | 1036.0 |
| 20260504035028 | 46 | 135 | 0.0 | 0.0 | 0.00 | 0.00 | 0.00 | 58 | 1036.0 |
| 20260504034029 | 46 | 135 | 0.0 | 0.0 | 0.00 | 0.00 | 0.00 | 58 | 1035.9 |
| 20260504033028 | 46 | 135 | 0.0 | 0.0 | 0.00 | 0.00 | 0.00 | 59 | 1035.9 |
| 20260504032028 | 47 | 135 | 0.0 | 0.0 | 0.00 | 0.00 | 0.00 | 59 | 1035.9 |
| 20260504031027 | 47 | 135 | 0.0 | 0.0 | 0.00 | 0.00 | 0.00 | 58 | 1035.7 |
| 20260504030027 | 47 | 135 | 0.0 | 0.0 | 0.00 | 0.00 | 0.00 | 56 | 1035.8 |
| 20260504025028 | 47 | 135 | 0.0 | 0.0 | 0.00 | 0.00 | 0.00 | 55 | 1035.9 |
| 20260504024127 | 48 | 135 | 0.0 | 0.0 | 0.00 | 0.00 | 0.00 | 55 | 1035.9 |
| 20260504024028 | 48 | 135 | 0.0 | 0.0 | 0.00 | 0.00 | 0.00 | 55 | 1035.9 |
| 20260504023027 | 48 | 135 | 0.0 | 0.0 | 0.00 | 0.00 | 0.00 | 54 | 1035.9 |
| 20260504021028 | 49 | 135 | 0.0 | 0.0 | 0.00 | 0.00 | 0.00 | 53 | 1035.9 |
| 20260504020029 | 49 | 135 | 0.0 | 0.0 | 0.00 | 0.00 | 0.00 | 53 | 1035.8 |
| 20260504015030 | 49 | 135 | 0.0 | 0.0 | 0.00 | 0.00 | 0.00 | 52 | 1035.9 |
| 20260504014027 | 50 | 135 | 0.0 | 0.0 | 0.00 | 0.00 | 0.00 | 51 | 1035.8 |
| 20260504012929 | 50 | 135 | 0.0 | 0.0 | 0.00 | 0.00 | 0.00 | 50 | 1035.7 |
| 20260504011929 | 51 | 135 | 0.0 | 0.0 | 0.00 | 0.00 | 0.00 | 49 | 1035.7 |
| 20260504011027 | 51 | 135 | 0.0 | 0.0 | 0.00 | 0.00 | 0.00 | 47 | 1035.4 |
| 20260504010028 | 52 | 135 | 0.0 | 0.0 | 0.00 | 0.00 | 0.00 | 47 | 1035.4 |
| 20260504005127 | 52 | 135 | 0.0 | 0.0 | 0.00 | 0.00 | 0.00 | 46 | 1035.2 |
| 20260504004129 | 52 | 135 | 0.0 | 0.0 | 0.00 | 0.00 | 0.00 | 46 | 1035.1 |
| 20260504003227 | 53 | 135 | 0.0 | 0.0 | 0.00 | 0.00 | 0.00 | 45 | 1035.0 |
| 20260504002229 | 53 | 135 | 0.0 | 0.0 | 0.00 | 0.00 | 0.00 | 43 | 1034.9 |
| 20260504001229 | 53 | 135 | 0.0 | 0.0 | 0.00 | 0.00 | 0.00 | 43 | 1034.8 |
| 20260504000227 | 54 | 135 | 0.0 | 0.0 | 0.00 | 0.00 | 0.00 | 43 | 1034.8 |
| 20260503233327 | 56 | 135 | 0.0 | 0.0 | 0.00 | 0.00 | 0.00 | 37 | 1034.6 |
| 20260503233228 | 56 | 135 | 0.0 | 0.0 | 0.00 | 0.00 | 0.00 | 37 | 1034.6 |
| 20260503232228 | 57 | 135 | 0.0 | 0.0 | 0.00 | 0.00 | 0.00 | 36 | 1034.5 |
| 20260503231327 | 57 | 135 | 0.0 | 1.0 | 0.00 | 0.00 | 0.00 | 34 | 1034.5 |
| 20260503225327 | 58 | 180 | 0.0 | 0.0 | 0.00 | 0.00 | 0.00 | 33 | 1034.4 |
| 20260503223330 | 58 | 90 | 0.0 | 0.0 | 0.00 | 0.00 | 0.00 | 33 | 1034.3 |
| 20260503222428 | 59 | 90 | 0.0 | 2.0 | 0.00 | 0.00 | 0.00 | 32 | 1034.2 |
| 20260503221428 | 59 | 180 | 0.0 | 0.0 | 0.00 | 0.00 | 0.00 | 31 | 1034.2 |
| 20260503220428 | 59 | 135 | 0.0 | 1.0 | 0.00 | 0.00 | 0.00 | 31 | 1034.2 |
| 20260503215527 | 59 | 202 | 0.0 | 1.0 | 0.00 | 0.00 | 0.00 | 31 | 1034.3 |
| 20260503215443 | 59 | 190 | 1.0 | 4.0 | 0.00 | 0.00 | 0.00 | 31 | 1034.3 |
| 20260503213429 | 59 | 98 | 0.0 | 1.0 | 0.00 | 0.00 | 0.00 | 30 | 1034.2 |
| 20260503212429 | 60 | 157 | 0.0 | 3.0 | 0.00 | 0.00 | 0.00 | 30 | 1034.2 |
| 20260503211429 | 60 | 349 | 0.0 | 1.0 | 0.00 | 0.00 | 0.00 | 29 | 1034.2 |
| 20260503205528 | 61 | 78 | 0.0 | 0.0 | 0.00 | 0.00 | 0.00 | 29 | 1034.3 |
| 20260503204528 | 62 | 197 | 1.0 | 7.0 | 0.00 | 0.00 | 0.00 | 28 | 1034.3 |
| 20260503203628 | 62 | 150 | 1.0 | 2.0 | 0.00 | 0.00 | 0.00 | 26 | 1034.5 |
| 20260503201727 | 62 | 215 | 0.0 | 0.0 | 0.00 | 0.00 | 0.00 | 28 | 1034.4 |
| 20260503200731 | 62 | 135 | 1.0 | 4.0 | 0.00 | 0.00 | 0.00 | 28 | 1034.6 |
| 20260503195827 | 63 | 178 | 0.0 | 4.0 | 0.00 | 0.00 | 0.00 | 27 | 1034.5 |
| 20260503192830 | 63 | 123 | 1.0 | 4.0 | 0.00 | 0.00 | 0.00 | 26 | 1034.8 |
| 20260503191830 | 62 | 93 | 1.0 | 5.0 | 0.00 | 0.00 | 0.00 | 28 | 1035.0 |